CEB997 RPLL-RPMR

Flight info

Callsign CEB997
Flight time 1h 28m
Altitude 39000
Route VERDE2R VERDE A461 SAJ W3 IOO B472 COT W19 MELBY MELBY3R
Aircraft A339/H-SADE1E2E3GHIJ3J5M1P2RWXY/LB2D1

Departure

Time 2026-04-26 05:15
Airport Ninoy Aquino International Airport (RPLL)

Arrival

Time 2026-04-26 06:43
Airport General Santos International Airport (RPMR)
Time Latitude Longitude Altitude Speed Heading
2026-04-26 04:44 14.51614 121.01562 75 ft 0 kts 45°
2026-04-26 04:55 14.51610 121.01558 74 ft 1 kts 45°
2026-04-26 04:55 14.51604 121.01552 64 ft 1 kts 45°
2026-04-26 04:56 14.51599 121.01547 64 ft 1 kts 45°
2026-04-26 04:56 14.51596 121.01543 60 ft 1 kts 45°
2026-04-26 04:56 14.51588 121.01536 64 ft 2 kts 45°
2026-04-26 04:56 14.51578 121.01526 64 ft 2 kts 45°
2026-04-26 04:57 14.51568 121.01515 64 ft 2 kts 45°
2026-04-26 04:57 14.51557 121.01505 64 ft 2 kts 73°
2026-04-26 04:57 14.51553 121.01491 64 ft 2 kts 118°
2026-04-26 04:57 14.51555 121.01484 64 ft 0 kts 133°
2026-04-26 05:01 14.51546 121.01494 64 ft 2 kts 133°
2026-04-26 05:01 14.51534 121.01506 64 ft 2 kts 133°
2026-04-26 05:01 14.51522 121.01519 65 ft 3 kts 133°
2026-04-26 05:02 14.51509 121.01533 66 ft 3 kts 133°
2026-04-26 05:02 14.51496 121.01548 69 ft 3 kts 133°
2026-04-26 05:02 14.51482 121.01563 66 ft 3 kts 133°
2026-04-26 05:02 14.51465 121.01579 65 ft 4 kts 140°
2026-04-26 05:03 14.51437 121.01585 64 ft 5 kts 175°
2026-04-26 05:03 14.51403 121.01572 64 ft 6 kts 199°
2026-04-26 05:03 14.51355 121.01581 69 ft 8 kts 153°
2026-04-26 05:03 14.51312 121.01631 71 ft 11 kts 130°
2026-04-26 05:04 14.51261 121.01688 64 ft 8 kts 134°
2026-04-26 05:04 14.51220 121.01731 66 ft 9 kts 134°
2026-04-26 05:04 14.51176 121.01776 65 ft 9 kts 135°
2026-04-26 05:04 14.51128 121.01824 69 ft 10 kts 135°
2026-04-26 05:05 14.51078 121.01874 69 ft 11 kts 136°
2026-04-26 05:05 14.51052 121.01900 64 ft 1 kts 136°
2026-04-26 05:05 14.51044 121.01906 64 ft 3 kts 140°
2026-04-26 05:05 14.51017 121.01915 71 ft 5 kts 166°
2026-04-26 05:06 14.50996 121.01902 75 ft 3 kts 224°
2026-04-26 05:06 14.50982 121.01880 66 ft 5 kts 234°
2026-04-26 05:06 14.50960 121.01844 64 ft 7 kts 239°
2026-04-26 05:06 14.50932 121.01794 70 ft 9 kts 239°
2026-04-26 05:07 14.50897 121.01730 66 ft 11 kts 240°
2026-04-26 05:07 14.50856 121.01656 64 ft 12 kts 240°
2026-04-26 05:07 14.50812 121.01576 68 ft 14 kts 240°
2026-04-26 05:07 14.50764 121.01488 65 ft 15 kts 240°
2026-04-26 05:08 14.50710 121.01393 69 ft 16 kts 239°
2026-04-26 05:08 14.50653 121.01292 68 ft 17 kts 240°
2026-04-26 05:08 14.50593 121.01186 65 ft 18 kts 240°
2026-04-26 05:08 14.50537 121.01083 64 ft 15 kts 240°
2026-04-26 05:09 14.50485 121.00989 64 ft 16 kts 240°
2026-04-26 05:09 14.50428 121.00889 64 ft 17 kts 240°
2026-04-26 05:09 14.50367 121.00779 63 ft 18 kts 240°
2026-04-26 05:09 14.50303 121.00662 68 ft 19 kts 240°
2026-04-26 05:10 14.50236 121.00540 68 ft 20 kts 240°
2026-04-26 05:10 14.50165 121.00413 64 ft 21 kts 239°
2026-04-26 05:10 14.50094 121.00288 65 ft 17 kts 240°
2026-04-26 05:10 14.50035 121.00181 65 ft 16 kts 240°
2026-04-26 05:11 14.49979 121.00080 65 ft 17 kts 240°
2026-04-26 05:11 14.49944 121.00017 66 ft 8 kts 240°
2026-04-26 05:11 14.49903 120.99969 66 ft 8 kts 207°
2026-04-26 05:11 14.49862 120.99974 69 ft 6 kts 162°
2026-04-26 05:12 14.49823 120.99994 68 ft 7 kts 155°
2026-04-26 05:12 14.49803 121.00031 68 ft 6 kts 102°
2026-04-26 05:12 14.49818 121.00055 69 ft 4 kts 56°
2026-04-26 05:12 14.49831 121.00084 68 ft 5 kts 64°
2026-04-26 05:13 14.49844 121.00110 67 ft 0 kts 63°
2026-04-26 05:14 14.49844 121.00111 67 ft 6 kts 63°
2026-04-26 05:14 14.50016 121.00427 63 ft 95 kts 60°
2026-04-26 05:14 14.50476 121.01256 84 ft 166 kts 61°
2026-04-26 05:14 14.51097 121.02399 401 ft 197 kts 63°
2026-04-26 05:15 14.51778 121.03671 1207 ft 202 kts 63°
2026-04-26 05:15 14.52334 121.04927 1812 ft 196 kts 73°
2026-04-26 05:15 14.52670 121.06308 2388 ft 192 kts 80°
2026-04-26 05:15 14.52855 121.07646 2362 ft 189 kts 87°
2026-04-26 05:16 14.52942 121.09047 2468 ft 205 kts 88°
2026-04-26 05:16 14.52974 121.10610 2625 ft 228 kts 92°
2026-04-26 05:16 14.52858 121.12327 2996 ft 249 kts 97°
2026-04-26 05:16 14.52584 121.14135 3491 ft 258 kts 102°
2026-04-26 05:17 14.52016 121.15880 4149 ft 264 kts 120°
2026-04-26 05:17 14.50816 121.17242 4798 ft 243 kts 143°
2026-04-26 05:17 14.50611 121.17383 4816 ft 241 kts 146°
2026-04-26 05:18 14.50174 121.17625 4806 ft 238 kts 154°
2026-04-26 05:18 14.48543 121.17932 4671 ft 245 kts 183°
2026-04-26 05:18 14.46847 121.17557 4705 ft 256 kts 195°
2026-04-26 05:18 14.45074 121.17010 4897 ft 275 kts 194°
2026-04-26 05:19 14.43198 121.16533 5464 ft 279 kts 191°
2026-04-26 05:19 14.41285 121.16167 6132 ft 281 kts 188°
2026-04-26 05:19 14.39341 121.15867 6774 ft 283 kts 187°
2026-04-26 05:19 14.37382 121.15595 7386 ft 285 kts 187°
2026-04-26 05:20 14.35408 121.15328 8003 ft 287 kts 187°
2026-04-26 05:20 14.33417 121.15054 8628 ft 290 kts 187°
2026-04-26 05:20 14.31407 121.14774 9238 ft 292 kts 187°
2026-04-26 05:20 14.29406 121.14492 9865 ft 295 kts 188°
2026-04-26 05:21 14.27178 121.14175 10281 ft 307 kts 188°
2026-04-26 05:21 14.25002 121.13864 10446 ft 325 kts 188°
2026-04-26 05:21 14.22695 121.13533 10608 ft 342 kts 188°
2026-04-26 05:21 14.20307 121.13192 11025 ft 348 kts 188°
2026-04-26 05:22 14.17898 121.12849 11554 ft 351 kts 188°
2026-04-26 05:22 14.15465 121.12500 12070 ft 354 kts 188°
2026-04-26 05:22 14.13014 121.12150 12597 ft 357 kts 188°
2026-04-26 05:22 14.10538 121.11797 13130 ft 360 kts 188°
2026-04-26 05:23 14.08048 121.11439 13662 ft 362 kts 189°
2026-04-26 05:23 14.05571 121.11084 14114 ft 365 kts 189°
2026-04-26 05:23 14.03046 121.10723 14590 ft 367 kts 189°
2026-04-26 05:23 14.00507 121.10358 15053 ft 370 kts 189°
2026-04-26 05:24 13.97948 121.09992 15503 ft 372 kts 189°
2026-04-26 05:24 13.96240 121.09749 15806 ft 374 kts 189°
2026-04-26 05:24 13.92772 121.09253 16388 ft 377 kts 189°
2026-04-26 05:24 13.91049 121.09006 16700 ft 379 kts 189°
2026-04-26 05:25 13.88428 121.08633 17149 ft 381 kts 189°
2026-04-26 05:25 13.85789 121.08256 17565 ft 384 kts 189°
2026-04-26 05:25 13.83131 121.07871 17999 ft 387 kts 189°
2026-04-26 05:25 13.80454 121.07483 18398 ft 389 kts 189°
2026-04-26 05:26 13.77758 121.07097 18799 ft 391 kts 189°
2026-04-26 05:26 13.75047 121.06709 19172 ft 394 kts 189°
2026-04-26 05:26 13.72327 121.06321 19585 ft 396 kts 189°
2026-04-26 05:26 13.69592 121.05928 20002 ft 398 kts 189°
2026-04-26 05:27 13.66845 121.05533 20404 ft 400 kts 189°
2026-04-26 05:27 13.64074 121.05141 20804 ft 403 kts 189°
2026-04-26 05:27 13.61284 121.04746 21198 ft 405 kts 189°
2026-04-26 05:27 13.58482 121.04344 21595 ft 408 kts 189°
2026-04-26 05:28 13.55704 121.03945 21991 ft 410 kts 189°
2026-04-26 05:28 13.52873 121.03539 22384 ft 412 kts 189°
2026-04-26 05:28 13.49973 121.03195 22753 ft 416 kts 185°
2026-04-26 05:28 13.47093 121.03181 23147 ft 419 kts 180°
2026-04-26 05:29 13.44162 121.03236 23516 ft 422 kts 181°
2026-04-26 05:29 13.41219 121.03275 23852 ft 424 kts 181°
2026-04-26 05:29 13.38262 121.03308 24198 ft 426 kts 181°
2026-04-26 05:29 13.35282 121.03336 24526 ft 428 kts 181°
2026-04-26 05:30 13.32336 121.03364 24853 ft 430 kts 181°
2026-04-26 05:30 13.29335 121.03392 25170 ft 432 kts 181°
2026-04-26 05:30 13.26320 121.03422 25513 ft 433 kts 181°
2026-04-26 05:30 13.23298 121.03448 25864 ft 435 kts 181°
2026-04-26 05:31 13.20308 121.03477 26174 ft 437 kts 181°
2026-04-26 05:31 13.17250 121.03508 26516 ft 439 kts 181°
2026-04-26 05:31 13.14182 121.03540 26834 ft 442 kts 181°
2026-04-26 05:31 13.11101 121.03570 27154 ft 443 kts 181°
2026-04-26 05:32 13.08016 121.03602 27497 ft 445 kts 181°
2026-04-26 05:32 13.04904 121.03633 27814 ft 447 kts 181°
2026-04-26 05:32 13.01786 121.03662 28133 ft 449 kts 181°
2026-04-26 05:32 12.98661 121.03692 28478 ft 450 kts 181°
2026-04-26 05:33 12.95509 121.03723 28758 ft 453 kts 181°
2026-04-26 05:33 12.92356 121.03756 29127 ft 453 kts 181°
2026-04-26 05:33 12.89229 121.03788 29452 ft 455 kts 181°
2026-04-26 05:33 12.86056 121.03820 29769 ft 457 kts 181°
2026-04-26 05:34 12.82845 121.03852 29947 ft 463 kts 181°
2026-04-26 05:34 12.79620 121.03884 30276 ft 464 kts 181°
2026-04-26 05:34 12.76387 121.03916 30645 ft 464 kts 181°
2026-04-26 05:34 12.73148 121.03948 30952 ft 466 kts 181°
2026-04-26 05:35 12.69904 121.03979 31284 ft 467 kts 181°
2026-04-26 05:35 12.66639 121.04012 31593 ft 468 kts 181°
2026-04-26 05:35 12.63416 121.04043 31901 ft 470 kts 181°
2026-04-26 05:35 12.60308 121.04074 32208 ft 471 kts 181°
2026-04-26 05:36 12.57029 121.04105 32468 ft 472 kts 181°
2026-04-26 05:36 12.53735 121.04136 32716 ft 473 kts 181°
2026-04-26 05:36 12.50440 121.04168 32921 ft 474 kts 181°
2026-04-26 05:36 12.47181 121.04199 33103 ft 475 kts 181°
2026-04-26 05:37 12.43859 121.04231 33274 ft 476 kts 181°
2026-04-26 05:37 12.40540 121.04365 33417 ft 478 kts 174°
2026-04-26 05:37 12.37292 121.05083 33617 ft 479 kts 163°
2026-04-26 05:37 12.34226 121.06432 33828 ft 481 kts 153°
2026-04-26 05:38 12.31466 121.08358 34016 ft 483 kts 142°
2026-04-26 05:38 12.29009 121.10707 34182 ft 484 kts 137°
2026-04-26 05:38 12.26614 121.13134 34332 ft 484 kts 137°
2026-04-26 05:38 12.24214 121.15539 34492 ft 483 kts 138°
2026-04-26 05:39 12.21790 121.17919 34649 ft 483 kts 138°
2026-04-26 05:39 12.19348 121.20279 34812 ft 483 kts 139°
2026-04-26 05:39 12.16931 121.22597 34962 ft 482 kts 139°
2026-04-26 05:39 12.14451 121.24968 35122 ft 482 kts 139°
2026-04-26 05:40 12.12032 121.27278 35268 ft 482 kts 139°
2026-04-26 05:40 12.09579 121.29620 35447 ft 482 kts 139°
2026-04-26 05:40 12.07126 121.31961 35614 ft 482 kts 139°
2026-04-26 05:40 12.04680 121.34296 35803 ft 482 kts 139°
2026-04-26 05:41 12.02230 121.36635 35970 ft 481 kts 139°
2026-04-26 05:41 11.99781 121.38972 36162 ft 481 kts 139°
2026-04-26 05:41 11.97330 121.41309 36334 ft 481 kts 139°
2026-04-26 05:41 11.94879 121.43646 36500 ft 481 kts 139°
2026-04-26 05:42 11.92559 121.45856 36669 ft 481 kts 139°
2026-04-26 05:42 11.90142 121.48160 36831 ft 480 kts 139°
2026-04-26 05:42 11.87700 121.50486 37005 ft 480 kts 139°
2026-04-26 05:43 11.85256 121.52814 37167 ft 480 kts 139°
2026-04-26 05:43 11.82814 121.55139 37321 ft 480 kts 139°
2026-04-26 05:43 11.80370 121.57467 37495 ft 480 kts 139°
2026-04-26 05:43 11.77925 121.59794 37645 ft 479 kts 139°
2026-04-26 05:44 11.75677 121.61933 37810 ft 480 kts 139°
2026-04-26 05:44 11.73237 121.64254 37954 ft 479 kts 139°
2026-04-26 05:44 11.70791 121.66579 38109 ft 479 kts 139°
2026-04-26 05:44 11.68349 121.68900 38257 ft 479 kts 139°
2026-04-26 05:45 11.65903 121.71224 38411 ft 479 kts 139°
2026-04-26 05:45 11.63462 121.73545 38560 ft 479 kts 139°
2026-04-26 05:45 11.61022 121.75862 38669 ft 479 kts 139°
2026-04-26 05:45 11.58617 121.78147 38805 ft 478 kts 139°
2026-04-26 05:46 11.53753 121.82767 38835 ft 477 kts 139°
2026-04-26 05:46 11.48894 121.87379 38831 ft 477 kts 139°
2026-04-26 05:47 11.44035 121.91990 38854 ft 477 kts 139°
2026-04-26 05:47 11.39178 121.96597 38862 ft 477 kts 139°
2026-04-26 05:48 11.34319 122.01205 38847 ft 476 kts 139°
2026-04-26 05:48 11.29480 122.05791 38837 ft 476 kts 139°
2026-04-26 05:49 11.22198 122.12686 38872 ft 476 kts 139°
2026-04-26 05:50 11.17376 122.17251 38869 ft 476 kts 139°
2026-04-26 05:50 11.12518 122.21848 38870 ft 476 kts 139°
2026-04-26 05:51 11.07666 122.26435 38868 ft 476 kts 139°
2026-04-26 05:51 11.02813 122.31022 38866 ft 476 kts 139°
2026-04-26 05:52 10.97965 122.35598 38861 ft 475 kts 139°
2026-04-26 05:52 10.93149 122.40143 38856 ft 475 kts 139°
2026-04-26 05:53 10.88263 122.44747 38844 ft 475 kts 139°
2026-04-26 05:53 10.83117 122.48914 38842 ft 472 kts 148°
2026-04-26 05:54 10.79615 122.51036 38827 ft 470 kts 154°
2026-04-26 05:54 10.75996 122.52789 38839 ft 469 kts 158°
2026-04-26 05:55 10.70061 122.55565 38831 ft 469 kts 157°
2026-04-26 05:55 10.64096 122.58394 38835 ft 469 kts 157°
2026-04-26 05:56 10.58173 122.61201 38828 ft 469 kts 157°
2026-04-26 05:56 10.52254 122.64000 38830 ft 469 kts 157°
2026-04-26 05:57 10.46339 122.66794 38827 ft 469 kts 156°
2026-04-26 05:57 10.40460 122.69572 38830 ft 469 kts 156°
2026-04-26 05:58 10.34502 122.72384 38822 ft 469 kts 156°
2026-04-26 05:58 10.28615 122.75164 38828 ft 469 kts 156°
2026-04-26 05:59 10.22695 122.77958 38829 ft 469 kts 156°
2026-04-26 05:59 10.16774 122.80752 38836 ft 469 kts 156°
2026-04-26 06:00 10.10822 122.83557 38846 ft 469 kts 156°
2026-04-26 06:00 10.04946 122.86326 38850 ft 469 kts 156°
2026-04-26 06:01 9.99029 122.89115 38859 ft 469 kts 156°
2026-04-26 06:01 9.93114 122.91903 38853 ft 468 kts 156°
2026-04-26 06:02 9.87204 122.94684 38862 ft 468 kts 156°
2026-04-26 06:02 9.81297 122.97464 38858 ft 467 kts 156°
2026-04-26 06:03 9.75399 123.00239 38861 ft 467 kts 156°
2026-04-26 06:03 9.69493 123.03014 38863 ft 467 kts 156°
2026-04-26 06:04 9.63585 123.05789 38862 ft 467 kts 156°
2026-04-26 06:04 9.57726 123.08544 38850 ft 467 kts 157°
2026-04-26 06:05 9.51835 123.11310 38849 ft 466 kts 156°
2026-04-26 06:05 9.45940 123.14077 38836 ft 467 kts 156°
2026-04-26 06:06 9.41044 123.16374 38833 ft 467 kts 156°
2026-04-26 06:06 9.35145 123.19141 38836 ft 467 kts 156°
2026-04-26 06:07 9.29253 123.21904 38824 ft 467 kts 156°
2026-04-26 06:07 9.23351 123.24670 38824 ft 466 kts 156°
2026-04-26 06:08 9.17463 123.27429 38832 ft 466 kts 156°
2026-04-26 06:08 9.11568 123.30190 38831 ft 466 kts 156°
2026-04-26 06:09 9.05722 123.32927 38826 ft 466 kts 156°
2026-04-26 06:09 8.99824 123.35687 38825 ft 467 kts 156°
2026-04-26 06:10 8.93928 123.38445 38823 ft 467 kts 156°
2026-04-26 06:10 8.88018 123.41210 38821 ft 467 kts 156°
2026-04-26 06:11 8.82130 123.43963 38830 ft 468 kts 156°
2026-04-26 06:11 8.76219 123.46725 38831 ft 468 kts 156°
2026-04-26 06:12 8.70304 123.49488 38837 ft 468 kts 156°
2026-04-26 06:12 8.64414 123.52239 38842 ft 468 kts 156°
2026-04-26 06:13 8.61050 123.53808 38840 ft 468 kts 156°
2026-04-26 06:13 8.55139 123.56567 38854 ft 467 kts 156°
2026-04-26 06:14 8.49228 123.59325 38852 ft 467 kts 156°
2026-04-26 06:14 8.43324 123.62079 38853 ft 467 kts 155°
2026-04-26 06:15 8.37444 123.64820 38858 ft 467 kts 155°
2026-04-26 06:15 8.31541 123.67573 38857 ft 467 kts 155°
2026-04-26 06:16 8.25683 123.70304 38855 ft 467 kts 155°
2026-04-26 06:16 8.19766 123.73058 38852 ft 468 kts 156°
2026-04-26 06:17 8.13781 123.75845 38847 ft 467 kts 156°
2026-04-26 06:17 8.07861 123.78602 38849 ft 468 kts 156°
2026-04-26 06:18 8.01994 123.81333 38845 ft 468 kts 156°
2026-04-26 06:18 7.96078 123.84085 38839 ft 469 kts 156°
2026-04-26 06:19 7.90139 123.86848 38844 ft 470 kts 156°
2026-04-26 06:19 7.84187 123.89616 38837 ft 471 kts 156°
2026-04-26 06:20 7.78225 123.92385 38838 ft 472 kts 156°
2026-04-26 06:20 7.72253 123.95160 38835 ft 473 kts 156°
2026-04-26 06:21 7.66265 123.97941 38832 ft 473 kts 156°
2026-04-26 06:21 7.60285 124.00720 38823 ft 473 kts 156°
2026-04-26 06:22 7.54295 124.03499 38735 ft 473 kts 156°
2026-04-26 06:22 7.51345 124.04867 38298 ft 473 kts 156°
2026-04-26 06:22 7.48346 124.06257 37490 ft 475 kts 155°
2026-04-26 06:22 7.45332 124.07655 36502 ft 479 kts 155°
2026-04-26 06:23 7.42295 124.09063 35323 ft 484 kts 155°
2026-04-26 06:23 7.39222 124.10487 34155 ft 487 kts 154°
2026-04-26 06:23 7.36152 124.11912 32708 ft 486 kts 154°
2026-04-26 06:23 7.33078 124.13340 31136 ft 487 kts 154°
2026-04-26 06:24 7.30014 124.14762 30033 ft 481 kts 154°
2026-04-26 06:24 7.26997 124.16161 29069 ft 473 kts 154°
2026-04-26 06:24 7.24041 124.17530 28401 ft 459 kts 154°
2026-04-26 06:24 7.21173 124.18858 28027 ft 449 kts 154°
2026-04-26 06:25 7.18327 124.20217 27775 ft 456 kts 151°
2026-04-26 06:25 7.15576 124.21882 27364 ft 466 kts 144°
2026-04-26 06:25 7.13037 124.23855 26898 ft 466 kts 140°
2026-04-26 06:25 7.10520 124.25934 26056 ft 470 kts 140°
2026-04-26 06:26 7.07983 124.28008 25367 ft 469 kts 140°
2026-04-26 06:26 7.05456 124.30062 24659 ft 465 kts 140°
2026-04-26 06:26 7.02949 124.32096 23969 ft 461 kts 140°
2026-04-26 06:26 7.00458 124.34113 23256 ft 457 kts 140°
2026-04-26 06:27 6.97989 124.36112 22507 ft 451 kts 140°
2026-04-26 06:27 6.95572 124.38069 21788 ft 438 kts 140°
2026-04-26 06:27 6.93238 124.39957 21189 ft 424 kts 140°
2026-04-26 06:27 6.90974 124.41790 20527 ft 412 kts 140°
2026-04-26 06:28 6.88802 124.43551 19955 ft 400 kts 140°
2026-04-26 06:28 6.86659 124.45284 19365 ft 389 kts 140°
2026-04-26 06:28 6.84555 124.46984 18749 ft 385 kts 140°
2026-04-26 06:28 6.82481 124.48662 18155 ft 382 kts 140°
2026-04-26 06:29 6.80416 124.50336 17542 ft 377 kts 140°
2026-04-26 06:29 6.78386 124.51980 16995 ft 372 kts 140°
2026-04-26 06:29 6.76382 124.53601 16419 ft 367 kts 140°
2026-04-26 06:29 6.74416 124.55190 16089 ft 358 kts 140°
2026-04-26 06:30 6.72472 124.56763 15572 ft 361 kts 140°
2026-04-26 06:30 6.70496 124.58362 14752 ft 366 kts 140°
2026-04-26 06:30 6.68499 124.59976 14129 ft 364 kts 140°
2026-04-26 06:30 6.66535 124.61563 13538 ft 360 kts 140°
2026-04-26 06:31 6.64583 124.63091 12995 ft 353 kts 141°
2026-04-26 06:31 6.62634 124.64559 12441 ft 347 kts 142°
2026-04-26 06:31 6.60716 124.65993 11933 ft 341 kts 142°
2026-04-26 06:31 6.58862 124.67384 11476 ft 333 kts 142°
2026-04-26 06:32 6.57017 124.68781 10985 ft 339 kts 142°
2026-04-26 06:32 6.55064 124.70263 10527 ft 362 kts 142°
2026-04-26 06:32 6.53050 124.71786 10375 ft 357 kts 142°
2026-04-26 06:32 6.51115 124.73247 10207 ft 337 kts 142°
2026-04-26 06:33 6.49307 124.74612 10006 ft 313 kts 142°
2026-04-26 06:33 6.47618 124.75891 9668 ft 295 kts 141°
2026-04-26 06:33 6.46002 124.77120 9086 ft 287 kts 141°
2026-04-26 06:33 6.44448 124.78303 8836 ft 280 kts 141°
2026-04-26 06:34 6.42857 124.79512 8715 ft 288 kts 141°
2026-04-26 06:34 6.41261 124.80722 8506 ft 286 kts 141°
2026-04-26 06:34 6.39682 124.81925 8151 ft 282 kts 141°
2026-04-26 06:34 6.38273 124.83244 7790 ft 273 kts 130°
2026-04-26 06:35 6.37162 124.84742 7430 ft 261 kts 122°
2026-04-26 06:35 6.36169 124.86224 7099 ft 252 kts 123°
2026-04-26 06:35 6.35147 124.87726 6763 ft 276 kts 124°
2026-04-26 06:35 6.34008 124.89372 6518 ft 291 kts 124°
2026-04-26 06:36 6.32859 124.91011 6430 ft 281 kts 124°
2026-04-26 06:36 6.31739 124.92602 5901 ft 277 kts 124°
2026-04-26 06:36 6.30632 124.94175 5183 ft 275 kts 124°
2026-04-26 06:36 6.29544 124.95719 4761 ft 262 kts 124°
2026-04-26 06:37 6.28524 124.97169 4614 ft 253 kts 124°
2026-04-26 06:37 6.27620 124.98625 4504 ft 237 kts 115°
2026-04-26 06:37 6.27055 125.00108 4368 ft 219 kts 105°
2026-04-26 06:37 6.26661 125.01542 4273 ft 206 kts 105°
2026-04-26 06:38 6.26263 125.02894 4186 ft 196 kts 106°
2026-04-26 06:38 6.25872 125.04153 4104 ft 182 kts 106°
2026-04-26 06:38 6.25514 125.05333 4018 ft 171 kts 105°
2026-04-26 06:38 6.25165 125.06456 3798 ft 167 kts 108°
2026-04-26 06:39 6.24473 125.07384 3486 ft 168 kts 144°
2026-04-26 06:39 6.23365 125.07745 3285 ft 167 kts 173°
2026-04-26 06:39 6.22218 125.07798 3066 ft 167 kts 178°
2026-04-26 06:39 6.21058 125.07821 2839 ft 165 kts 177°
2026-04-26 06:40 6.19922 125.07879 2625 ft 161 kts 174°
2026-04-26 06:40 6.18834 125.07989 2525 ft 158 kts 173°
2026-04-26 06:40 6.17706 125.08132 2502 ft 164 kts 172°
2026-04-26 06:40 6.16573 125.08271 2430 ft 160 kts 172°
2026-04-26 06:41 6.15510 125.08411 2227 ft 147 kts 172°
2026-04-26 06:41 6.14543 125.08551 2022 ft 136 kts 173°
2026-04-26 06:41 6.13580 125.08667 1854 ft 141 kts 173°
2026-04-26 06:41 6.12592 125.08790 1692 ft 145 kts 173°
2026-04-26 06:42 6.11576 125.08911 1529 ft 145 kts 173°
2026-04-26 06:42 6.10603 125.09030 1315 ft 140 kts 171°
2026-04-26 06:42 6.09613 125.09157 1034 ft 144 kts 170°
2026-04-26 06:42 6.08656 125.09283 807 ft 135 kts 174°
2026-04-26 06:43 6.07723 125.09388 617 ft 139 kts 172°
2026-04-26 06:43 6.06783 125.09503 520 ft 125 kts 172°
2026-04-26 06:43 6.06055 125.09598 521 ft 82 kts 172°
2026-04-26 06:43 6.05591 125.09644 519 ft 33 kts 172°
2026-04-26 06:44 6.05466 125.09662 519 ft 14 kts 172°
2026-04-26 06:44 6.05409 125.09684 520 ft 8 kts 136°
2026-04-26 06:44 6.05398 125.09733 520 ft 7 kts 90°
2026-04-26 06:44 6.05404 125.09787 520 ft 8 kts 84°
2026-04-26 06:45 6.05410 125.09840 520 ft 7 kts 83°
2026-04-26 06:45 6.05416 125.09878 520 ft 5 kts 78°
2026-04-26 06:45 6.05440 125.09903 520 ft 5 kts 33°
2026-04-26 06:45 6.05483 125.09907 520 ft 8 kts 356°
2026-04-26 06:46 6.05552 125.09901 520 ft 12 kts 355°
2026-04-26 06:46 6.05642 125.09890 520 ft 11 kts 352°
2026-04-26 06:46 6.05701 125.09882 520 ft 8 kts 352°
2026-04-26 06:46 6.05753 125.09880 520 ft 5 kts 13°
2026-04-26 06:47 6.05772 125.09911 520 ft 5 kts 68°
2026-04-26 06:47 6.05776 125.09937 520 ft 1 kts 82°
2026-04-26 06:47 6.05776 125.09940 520 ft 0 kts 82°